Wind_Speed
2 5 7 9 5 4 6 5 3 1 1 3 5 7 12 23 14 20 25 22 22 23 23 24 25 24 25 29 32 31 31 32 33 33 34 35 34 33 31 32 32 32 30 28
5 5 5 7 6 5 5 4 2 1 2 2 4 10 11 16 15 21 24 25 20 16 14 14 21 27 27 26 26 31 31 31 31 33 33 34 34 34 33 32 33 34 34 33
7 2 11 6 4 6 3 6 4 3 1 3 5 8 6 4 5 9 8 11 13 13 13 8 6 14 22 24 24 25 26 29 30 30 34 35 36 36 34 34 33 34 35 36
4 3 8 7 4 5 5 6 5 6 4 3 3 5 6 5 9 6 11 9 8 7 7 5 1 5 10 16 23 23 23 25 29 32 33 33 33 33 27 27 27 29 32 35
6 7 7 5 5 6 3 4 5 4 4 3 3 2 7 4 5 5 9 13 12 12 11 13 10 6 2 2 9 15 20 22 24 27 31 31 33 31 30 29 28 29 29 30
3 2 3 4 4 2 9 7 8 5 3 1 3 4 5 3 2 3 5 9 9 9 8 9 9 9 8 6 4 0 6 12 15 17 20 23 25 26 27 28 28 28 28 27
2 1 1 4 7 5 4 6 2 2 2 5 2 2 8 4 5 3 5 7 8 9 9 10 9 10 11 11 11 10 9 6 2 3 7 11 15 19 21 22 23 24 25 26
6 3 8 5 5 8 6 6 5 7 4 2 2 5 5 2 8 0 4 8 11 15 17 19 21 22 23 23 24 23 21 17 13 8 4 4 8 12 14 15 16 17 18 19
5 3 1 2 3 5 5 4 5 7 3 3 3 6 4 5 6 9 13 17 21 24 26 26 22 22 22 21 21 20 19 18 16 13 9 6 5 7 9 10 12 13 14 15
7 4 2 1 2 4 3 8 3 3 3 3 3 4 5 1 4 4 9 16 18 20 20 18 17 17 16 15 15 13 12 11 11 10 8 7 8 10 12 14 14 15 17 19
6 4 1 3 5 8 3 3 4 5 4 5 2 5 6 8 6 7 9 9 12 14 15 15 15 13 11 10 9 9 9 10 10 10 10 10 11 12 15 17 18 21 23 25
5 5 4 6 2 1 1 6 6 5 4 1 3 5 3 8 8 11 10 11 11 7 10 10 9 9 10 10 10 11 11 12 13 12 11 11 12 14 16 19 21 23 26 28
7 2 3 4 3 3 4 4 4 5 3 7 6 5 3 6 8 7 8 6 5 2 3 5 5 8 9 10 10 11 11 12 13 14 14 14 15 17 18 20 22 25 28 29
10 3 8 11 4 7 6 6 6 6 3 5 6 7 7 8 7 3 3 3 4 6 5 4 5 8 9 10 10 10 12 13 13 14 16 17 18 20 21 23 24 25 26 28
5 6 3 3 3 5 4 8 10 9 13 8 7 10 17 16 9 5 4 8 9 5 2 4 5 7 9 10 11 12 14 16 17 18 19 21 21 22 24 25 26 27 27 28
2 3 3 2 3 3 3 6 8 6 4 2 3 5 5 7 9 8 10 10 7 4 4 4 5 7 9 12 14 16 18 19 21 22 23 25 26 27 28 29 31 32 34 33
4 5 3 4 4 4 5 11 9 5 4 8 11 8 8 4 7 8 11 10 9 6 4 5 7 9 11 14 17 19 22 24 27 28 30 31 33 35 36 37 39 41 40 40
6 4 2 3 5 7 4 3 6 8 6 8 4 5 9 10 8 6 8 8 7 5 2 3 6 9 14 19 22 25 27 29 31 33 35 36 38 39 40 41 42 43 44 45
7 5 3 4 2 3 3 5 7 8 9 13 9 7 11 13 12 9 9 7 4 2 3 6 10 15 18 22 25 27 28 29 31 33 34 35 36 38 40 41 42 43 45 46
6 5 5 3 5 8 5 3 8 6 4 4 18 12 14 16 4 4 11 4 0 4 7 11 14 16 18 20 23 25 26 28 29 31 32 34 35 38 40 41 42 43 43 44
4 3 6 4 2 6 6 6 9 6 6 7 13 20 22 5 5 13 11 3 5 8 11 14 16 18 20 23 25 26 26 26 28 30 31 32 34 36 39 41 42 44 44 44
8 5 3 3 2 7 10 4 9 5 7 14 19 17 15 12 13 8 5 4 7 11 14 17 20 22 22 24 27 29 29 29 31 33 33 34 35 38 40 42 43 42 41 41
3 5 5 7 5 1 12 3 7 12 20 16 16 13 12 10 6 3 5 9 13 15 19 22 25 26 25 25 27 29 30 32 33 34 34 35 37 39 39 42 42 42 38 38
3 2 4 4 3 1 7 9 12 16 17 16 13 8 4 3 5 9 13 16 19 21 23 22 24 27 30 27 28 30 32 34 37 38 38 37 39 40 40 39 40 39 38 37
4 8 5 2 2 7 9 17 20 19 16 12 8 5 5 9 13 17 19 21 22 22 22 25 28 32 34 35 37 36 37 38 41 42 43 42 42 42 41 37 35 35 33 31
9 6 5 5 17 8 20 25 20 16 12 9 6 8 11 15 18 20 23 24 25 26 28 31 33 35 38 40 42 44 42 41 42 44 44 43 43 43 42 38 35 27 27 21
Wind_Direction
85 100 188 190 153 117 128 120 159 201 96 176 234 266 281 285 279 270 273 273 271 265 270 259 251 246 244 246 244 242 244 244 244 243 244 245 249 251 253 253 253 255 257 263
55 206 194 121 125 113 121 124 172 52 58 130 357 281 263 273 264 268 277 284 285 284 288 285 250 240 241 242 243 243 243 244 243 245 248 249 254 258 260 260 258 255 256 258
147 205 142 119 130 127 123 152 179 145 74 60 344 300 322 309 294 291 296 297 301 308 311 292 262 237 236 240 241 244 244 245 245 243 244 247 250 255 258 260 261 259 257 257
147 120 139 121 167 135 171 190 142 127 92 220 22 279 307 317 308 330 351 7 34 52 50 46 167 220 234 235 237 239 241 245 249 248 245 249 253 256 269 273 277 273 268 266
203 165 142 132 184 159 176 113 113 88 95 77 322 79 272 342 331 359 30 43 54 57 60 65 79 106 110 235 241 237 236 240 244 248 250 253 256 263 268 272 274 275 274 272
131 115 105 140 72 79 150 77 49 58 85 347 260 150 282 228 191 306 356 12 30 48 54 58 60 59 49 42 43 40 234 240 245 248 250 253 261 267 270 273 277 279 278 276
44 84 51 131 86 43 84 91 22 359 15 218 351 95 245 254 260 252 331 28 38 44 57 62 62 63 62 63 67 70 72 74 88 243 249 255 260 265 272 276 278 279 279 276
145 205 171 185 158 162 187 159 157 193 189 230 72 231 249 189 326 231 87 77 72 75 79 80 78 81 82 82 78 76 74 70 69 63 36 321 296 288 286 288 286 282 282 282
135 218 20 60 129 147 184 190 157 106 23 58 218 284 316 21 43 84 86 94 91 86 84 85 80 79 78 75 76 72 67 64 60 52 43 25 358 329 316 305 303 307 307 307
197 115 3 32 101 56 159 162 85 9 131 229 284 278 227 137 108 55 76 99 96 85 78 79 81 78 74 69 66 65 56 44 36 26 16 358 332 313 307 302 306 307 302 301
145 109 347 122 219 162 132 180 59 114 137 163 165 254 219 151 163 119 95 119 105 83 71 82 74 65 57 46 38 31 17 4 356 352 346 336 323 311 303 300 295 294 294 293
189 112 145 202 283 273 178 178 149 136 215 243 141 261 205 170 156 111 85 86 96 88 74 72 60 49 36 29 21 13 5 356 351 349 343 334 326 318 312 307 303 299 297 296
185 190 82 11 349 353 198 190 127 115 93 193 140 252 75 136 118 108 96 76 80 71 92 74 48 27 17 10 6 1 355 350 345 338 334 331 327 322 318 312 310 308 306 305
148 140 176 203 181 134 179 182 177 150 160 180 217 143 218 220 192 166 124 134 147 127 105 67 14 4 0 359 360 2 358 351 343 336 331 328 327 325 324 322 320 318 314 310
137 166 133 32 121 127 157 171 177 191 207 189 191 179 200 207 182 165 137 152 147 132 77 25 13 4 356 352 352 353 352 350 347 344 340 338 338 334 332 330 328 325 322 319
37 152 120 95 75 79 159 199 193 197 143 139 157 236 195 153 187 157 155 158 157 138 79 51 29 6 354 349 344 344 344 344 343 342 338 336 334 333 329 327 326 324 323 321
110 132 114 201 121 105 308 210 180 181 181 166 213 211 156 161 161 153 149 150 139 122 80 37 18 5 357 350 344 342 339 336 334 332 329 326 324 322 320 319 318 317 317 316
129 104 65 138 125 204 259 48 175 197 183 210 117 140 152 154 153 174 159 143 122 115 84 359 339 334 334 330 328 328 328 327 326 324 323 322 319 316 315 313 312 312 312 312
166 129 137 157 195 314 234 195 150 168 245 208 205 140 149 145 141 146 144 136 121 77 356 334 329 327 323 321 320 321 322 322 322 320 321 320 320 319 318 317 314 313 311 311
172 137 163 155 171 199 223 197 161 119 282 170 178 168 155 150 156 222 170 159 171 327 322 318 316 320 322 321 321 323 323 323 319 317 315 314 314 313 312 312 313 312 311 308
161 140 161 164 192 286 231 164 147 114 233 157 162 156 157 156 169 147 175 239 295 308 313 314 316 319 321 320 318 318 317 318 314 312 311 311 311 309 309 309 309 309 309 308
174 151 176 118 110 269 165 120 160 175 129 136 141 148 150 145 152 167 211 266 296 304 308 308 308 308 312 313 312 312 314 311 309 309 309 310 309 308 308 307 308 308 309 307
216 183 173 179 197 250 165 114 155 154 148 149 149 145 148 156 176 238 288 302 307 306 305 307 305 305 308 311 309 310 313 310 309 309 310 310 309 309 308 307 306 306 306 306
274 210 144 95 297 139 151 126 144 152 154 147 145 149 174 242 287 299 304 305 305 305 305 302 299 301 304 306 304 309 312 310 309 308 307 307 306 307 306 305 305 305 304 305
189 140 151 290 325 118 168 160 148 147 154 161 179 215 270 288 295 298 300 303 304 302 299 300 303 304 304 304 305 309 310 308 306 303 303 302 302 304 305 303 304 304 303 302
188 164 167 212 173 160 182 174 174 177 183 198 231 266 281 288 292 295 297 299 299 299 300 301 302 302 302 303 304 304 306 304 301 299 301 301 300 300 302 304 303 303 300 299
Height
1506 1513 1520 1518 1518 1521 1529 1532 1535 1533 1532 1536 1538 1537 1528 1522 1523 1520 1519 1519 1519 1519 1519 1521 1523 1525 1528 1531 1533 1534 1538 1542 1546 1548 1551 1553 1554 1556 1558 1560 1563 1566 1569 1570
1511 1516 1512 1514 1518 1522 1527 1532 1535 1534 1534 1535 1538 1536 1524 1519 1516 1514 1514 1514 1514 1514 1514 1515 1513 1516 1520 1523 1527 1530 1533 1536 1540 1543 1544 1547 1549 1552 1555 1557 1560 1562 1563 1565
1508 1507 1508 1513 1521 1525 1529 1533 1535 1532 1536 1538 1540 1536 1526 1515 1514 1512 1513 1511 1511 1511 1509 1509 1510 1511 1514 1518 1521 1525 1528 1531 1535 1538 1540 1543 1545 1546 1549 1551 1553 1555 1558 1560
1503 1507 1508 1514 1522 1523 1531 1526 1530 1534 1541 1550 1544 1555 1531 1521 1516 1514 1511 1509 1508 1509 1508 1507 1507 1509 1511 1513 1516 1520 1522 1525 1529 1532 1534 1537 1540 1542 1544 1546 1549 1551 1552 1554
1505 1509 1509 1513 1514 1518 1524 1526 1530 1535 1547 1546 1547 1555 1533 1525 1517 1513 1513 1512 1511 1510 1510 1508 1508 1508 1510 1511 1513 1516 1518 1520 1523 1526 1530 1534 1536 1538 1540 1542 1543 1545 1547 1548
1505 1504 1504 1507 1515 1516 1524 1531 1540 1547 1553 1560 1549 1550 1539 1525 1517 1513 1513 1513 1512 1511 1512 1511 1510 1511 1512 1512 1512 1514 1516 1519 1521 1524 1526 1530 1533 1535 1536 1537 1539 1539 1540 1542
1504 1504 1505 1508 1517 1519 1523 1533 1555 1558 1567 1561 1556 1555 1534 1520 1516 1515 1514 1514 1513 1512 1512 1512 1512 1512 1513 1513 1513 1513 1515 1517 1520 1522 1525 1527 1529 1530 1532 1533 1533 1533 1534 1533
1509 1516 1507 1506 1507 1515 1526 1525 1545 1555 1568 1553 1555 1551 1527 1516 1513 1514 1514 1514 1514 1514 1514 1513 1514 1515 1515 1516 1516 1516 1517 1519 1520 1521 1524 1526 1528 1529 1528 1528 1528 1528 1528 1529
1502 1505 1504 1504 1504 1506 1521 1527 1528 1555 1600 1573 1549 1538 1518 1516 1514 1514 1514 1516 1515 1516 1517 1518 1518 1520 1520 1520 1520 1520 1521 1521 1522 1523 1523 1523 1525 1525 1526 1526 1525 1524 1524 1523
1487 1504 1509 1507 1506 1506 1511 1519 1533 1547 1568 1565 1549 1542 1530 1519 1518 1516 1516 1517 1519 1519 1520 1521 1521 1523 1522 1523 1523 1523 1524 1524 1524 1524 1524 1524 1523 1523 1523 1522 1522 1521 1519 1517
1483 1490 1512 1507 1507 1509 1516 1518 1523 1526 1538 1553 1566 1538 1522 1519 1518 1519 1518 1519 1521 1521 1521 1522 1523 1524 1524 1524 1524 1524 1524 1525 1525 1523 1523 1522 1521 1520 1519 1519 1518 1516 1514 1512
1479 1491 1511 1507 1504 1505 1503 1507 1509 1527 1539 1550 1546 1536 1518 1516 1516 1516 1517 1519 1519 1521 1521 1522 1523 1523 1523 1523 1523 1522 1523 1523 1522 1522 1521 1520 1518 1517 1516 1515 1515 1511 1509 1507
1475 1492 1525 1512 1507 1506 1505 1506 1508 1514 1525 1534 1542 1531 1515 1518 1517 1518 1518 1517 1517 1518 1520 1521 1523 1522 1522 1523 1523 1522 1522 1521 1520 1520 1519 1517 1515 1514 1512 1511 1508 1506 1502 1499
1468 1483 1485 1485 1485 1495 1503 1503 1504 1504 1523 1516 1520 1520 1519 1518 1518 1518 1518 1518 1519 1519 1520 1520 1521 1521 1521 1521 1522 1521 1521 1520 1519 1518 1517 1515 1512 1512 1509 1506 1503 1501 1498 1495
1469 1482 1481 1486 1485 1487 1491 1495 1501 1502 1496 1506 1501 1509 1505 1506 1512 1514 1516 1516 1517 1518 1519 1520 1520 1520 1520 1520 1520 1520 1519 1518 1517 1515 1513 1511 1509 1508 1504 1502 1499 1496 1493 1489
1469 1485 1482 1492 1489 1488 1489 1492 1496 1496 1501 1502 1505 1504 1500 1503 1508 1511 1513 1514 1516 1517 1518 1519 1519 1520 1520 1519 1518 1517 1516 1514 1513 1512 1509 1507 1504 1501 1499 1496 1493 1489 1486 1482
1469 1479 1487 1497 1493 1491 1496 1484 1491 1492 1494 1493 1498 1489 1494 1499 1501 1505 1508 1511 1513 1514 1515 1516 1516 1518 1518 1517 1516 1514 1513 1511 1509 1507 1504 1501 1497 1495 1492 1489 1485 1481 1477 1473
1467 1474 1481 1492 1490 1486 1472 1476 1477 1481 1485 1487 1486 1488 1491 1495 1499 1502 1505 1507 1510 1511 1512 1513 1514 1515 1515 1513 1511 1510 1509 1506 1504 1501 1498 1494 1491 1487 1484 1480 1477 1472 1468 1463
1463 1471 1482 1482 1484 1486 1476 1476 1479 1480 1480 1477 1480 1488 1491 1495 1499 1503 1503 1505 1507 1509 1509 1510 1511 1511 1511 1509 1507 1505 1504 1502 1500 1497 1493 1490 1486 1481 1477 1472 1468 1463 1458 1454
1461 1463 1467 1490 1482 1492 1469 1468 1468 1472 1487 1472 1475 1481 1487 1493 1501 1499 1501 1504 1505 1507 1507 1507 1507 1507 1507 1506 1504 1503 1501 1500 1496 1493 1489 1486 1482 1477 1472 1467 1463 1457 1452 1446
1457 1462 1467 1475 1481 1479 1466 1465 1468 1487 1481 1470 1473 1479 1484 1490 1492 1495 1499 1502 1503 1504 1504 1503 1503 1502 1502 1500 1498 1498 1496 1494 1490 1488 1484 1480 1476 1472 1467 1461 1457 1450 1444 1439
1451 1459 1462 1476 1478 1472 1459 1466 1469 1468 1469 1471 1475 1480 1484 1488 1492 1495 1497 1500 1501 1501 1501 1499 1499 1498 1498 1496 1493 1491 1490 1486 1483 1480 1477 1472 1469 1465 1460 1453 1448 1442 1436 1431
1460 1451 1461 1460 1460 1458 1459 1460 1461 1463 1466 1473 1475 1480 1483 1487 1491 1494 1495 1496 1497 1497 1495 1494 1493 1491 1491 1491 1487 1484 1483 1479 1476 1473 1470 1466 1461 1457 1452 1445 1440 1434 1429 1424
1454 1451 1455 1455 1459 1457 1459 1459 1462 1465 1467 1471 1475 1479 1482 1485 1487 1489 1490 1491 1491 1491 1490 1487 1486 1484 1483 1484 1481 1479 1476 1472 1468 1465 1461 1458 1453 1448 1443 1438 1432 1426 1421 1416
1446 1447 1456 1459 1458 1459 1460 1461 1462 1465 1468 1470 1473 1476 1479 1481 1482 1483 1484 1484 1484 1483 1482 1481 1480 1477 1475 1474 1471 1471 1468 1463 1458 1454 1450 1446 1442 1438 1433 1429 1424 1419 1414 1409
1436 1440 1446 1448 1445 1448 1453 1457 1461 1463 1466 1469 1471 1474 1475 1477 1477 1476 1477 1476 1476 1476 1475 1474 1472 1469 1467 1464 1461 1459 1457 1453 1448 1443 1440 1436 1432 1428 1423 1419 1415 1413 1407 1404